STARLINK-34878, 65334

Orbit data source: Space-Track

STARLINK-34878, 65334 is a payload satellite owned by SpaceX/Seattle (US) in LEO that was launched on Wed, 27 Aug 2025 UTC via an FALCON 9 launch vehicle from the Air Force Eastern Test Range (AFETR). Payload-class satellites include a variety of spacecraft equipped with specific instruments for various scientific and technological missions. These include communications satellites like Starlink; space stations such as the ISS; scientific satellites like the Hubble; Earth observation satellites from companies like Planet Labs, Umbra, and HawkEye 360; GPS; miniature CubeSats for education and research; and military/defense satellites.

Loading next visibility...
Identifier
65334, 2025-189M
Orbit
LEO
Country
Flag of USUS
Related business
Manufacturer
SpaceX/Seattle
Mission
Operational Commercial Communications
Bus & Motor
STARLINK V2MO, Unknown motor
Mass
575 kg wet, ~530 kg dry
Launch date (UTC)
2025-08-27 (10 months ago)
Launch vehicle
FALCON 9
Launch site
Air Force Eastern Test Range (AFETR)
Object type
Payload
Rocket body
Debris
Shape & HBR
Box + 2 Pan, 17.7 m
Radar Cross Section
36.964 m², Large (>1 m²)

Expand to show TLE details & history
Last TLE update: 23 hours ago

TLE from 23 hours ago
0 STARLINK-34878
1 65334U 25189M   26170.93141822  .00017266  00000-0  56653-3 0  9992
2 65334  53.1592  91.6196 0000973 108.6107 251.5000 15.31718166 46767
Epoch: 2026-06-19T22:21Z
TLE epoch observation values (Epoch: 2026-06-19T22:21:14.534Z)
Latitude
-0.00002°
Longitude
-151.84429°
Altitude
471.798 km
Speed
7.631 km/s
True Right ascension
06h 06m 28s
True Declination
0° 00' 00"
Sunlit
Object was in daylight at epoch
Visualization orbit readout
Latitude
Unknown
Longitude
Unknown
Altitude
Unknown
Speed
Unknown
Apparent Right ascension
Unknown
Apparent Declination
Unknown
Sunlit
N/A
Visualization observer readout
Local Sidereal Time
08:32:43
Azimuth
Unknown
Elevation
Unknown
Doppler factor
Unknown
Orbital elements
Apogee altitude
471.609 km
Perigee altitude
470.276 km
Semi-major axis
6,849.08 km
Eccentricity
0.0001
Inclination
53.1592°
RAAN
91.6196°
Arg. of periapsis
108.6107°
True anomaly
251.48943°
Mean anomaly
251.5°
Eccentric anomaly
251.49471°
Mean motion
3.82908 °/min
Orbital period
94.02 mins
BSTAR
0.00056653
Loading maneuver chart data...
Computing Atmospheric mass density...
Loading historical data...
Loading historical data...
Loading historical data...
Loading historical data...
Loading historical data...
Loading historical data...
Loading historical data...

Documentation

Showing up to 5 results
|